sat.trackr.live / text

‹ back to catalog

ONEWEB-0628

NORAD 55169 · 2023-004AF

PAYLOAD ACTIVE UNKNOWN

§ Identity

Operator
Country
UK
Launch date
2023-01-10
Launch site
AFETR
Launch vehicle
Mass (kg)
RCS (m²)

Purposes: comms

External: N2YO · Heavens-Above · Gunter

§ Orbital elements

Epoch: 2026-09-19T22:32:20.205600Z

Period
109.72 min
Inclination
87.8982°
Eccentricity
0.0002437
Mean motion
13.12442805 rev/d
Perigee alt
1,211.9 km
Apogee alt
1,215.6 km
Semi-major
7,591.9 km
B*
3.1095e-4
RAAN
331.8446°
Arg perigee
109.1525°
Mean anomaly
250.9868°
Rev number
18,046

§ Raw data

ONEWEB-06281 55169U 23004AF  26262.93912275  .00000125  00000+0  31095-3 0  99992 55169  87.8982 331.8446 0002437 109.1525 250.9868 13.12442805180465

JSON: /api/v1/satellites/55169 · /tle

For live sub-satellite position, see the globe view (requires WebGL).

§ Visibility from observer

Set your observer location to see the next 7 days of passes ≥ 10°. The values pass through the URL so the page stays shareable.

No JS? Fill the form by hand. The geolocation button needs JavaScript.